Flag for Germany Weather past 2 weeks in Demmin, Mecklenburg-Western Pomerania, Germany

Now
63 °F

Overcast.


Feels Like: 63 °F
Forecast: 50 / 67 °F
Wind: 2 mph from Southwest

Location: Greifswald

Current Time: Sep 3, 2015 at 1:15:52 PM

Latest Report: Sep 3, 2015 at 12:00 PM


Visibility: 16 mi

Pressure: 29.96 "Hg

Humidity: 63%

Dew point: 50 °F

Location of DemminLocation

Historic Weather in Demmin — Graph

°F

Demmin temperature yesterday

Maximum temperature yesterday: 67 °F (at 4:00 PM)
Minimum temperature yesterday: 54 °F (at 7:00 AM)
Average temperature yesterday: 60 °F

Past Weeks' High & Low Weather Summary

 TemperatureHumidityPressure
High78 °F (Aug 21, 2:00 PM)99% (Aug 21, 6:00 AM)30.35 "Hg (Aug 21, 6:00 AM)
Low51 °F (Aug 22, 6:00 AM)29% (Aug 21, 2:00 PM)29.67 "Hg (Sep 1, 3:00 AM)
Average65 °F73%30.03 "Hg
* Reported Aug 19 12:00 Noon — Sep 3 12:00 Noon, Demmin, Weather by CustomWeather, © 2015

Note: Actual official high and low records may vary slightly from our data, if they occured in-between our weather recording intervals... More about our weather records

Advertising

Demmin weather history for previous 24 hours

 ConditionsComfort  
Time TempWeatherWind HumidityBarometerVisibility
12:00 PM
Thu, Sep 3
63 °FOvercast.2 mph63%29.96 "Hg16 mi
10:00 AM60 °FPassing clouds.1 mph68%29.96 "Hg16 mi
9:00 AM57 °FPartly sunny.1 mph76%29.97 "Hg14 mi
8:00 AM55 °FScattered clouds.2 mph80%29.97 "Hg14 mi
7:00 AM53 °FPartly sunny.2 mph88%29.97 "Hg14 mi
5:00 AM54 °FOvercast.2 mph86%29.96 "Hg14 mi
4:00 AM52 °FPassing clouds.2 mph92%29.97 "Hg14 mi
3:00 AM51 °FPassing clouds.1 mph94%29.97 "Hg14 mi
2:00 AM51 °FPassing clouds.1 mph92%29.97 "Hg14 mi
1:00 AM54 °FClear.2 mph85%29.98 "Hg19 mi
10:00 PM
Wed, Sep 2
58 °FClear.2 mph72%29.97 "Hg22 mi
9:00 PM60 °FPassing clouds.2 mph68%29.97 "Hg25 mi
8:00 PM63 °FClear.2 mph59%29.96 "Hg28 mi
7:00 PM66 °FPassing clouds.3 mph49%29.95 "Hg31 mi
6:00 PM67 °FScattered clouds.5 mph49%29.94 "Hg31 mi
4:00 PM67 °FPartly sunny.6 mph48%29.94 "Hg31 mi
3:00 PM66 °FScattered clouds.6 mph46%29.94 "Hg31 mi
2:00 PM65 °FScattered clouds.7 mph52%29.94 "Hg31 mi
1:00 PM64 °FScattered clouds.6 mph57%29.94 "Hg25 mi
Weather by CustomWeather, © 2015

See weather overviewHow to use our weather pages